Voltar ao catálogo

STARLINK-4622

AtivoComunicaçõesSSO
NORAD 53648·PAYLOAD·🇺🇸 United States

Lançado Aug 31, 2022 de Vandenberg Space Force Base

Loading…

Próximas Passagens (próximas 24 horas)

TLE

AtualizadoSource: CelesTrak SupGP

Época: Sep 14, 2026, 21:50 UTC

1 53648C 22105A   26257.91020833  .00003581  00000+0  24869-3 0  2579
2 53648  97.2844 132.0550 0001804  87.8229 132.9008 15.05646291    10

Acompanhe STARLINK-4622 em tempo real com AllMySat

Download on the App Store